Regional Weather Roundup
Issued by NWS Sioux Falls, SD

Home | Current Version | Previous Version | Graphics & Text | Print | Product List | Glossary Off
Versions: 1 2 3 4 5 6 7 8 9 10 11 12 13 14 15 16 17 18 19 20 21 22 23 24 25 26 27 28 29 30 31 32 33 34 35 36 37 38 39 40 41 42 43 44 45 46 47 48 49 50

000
ASUS43 KFSD 180802
RWRFSD

WEATHER ROUNDUP FOR SE SOUTH DAKOTA/SW MINNESOTA/NW IOWA
NATIONAL WEATHER SERVICE SIOUX FALLS SD
200 AM CST THU DEC 18 2014

NOTE: "FAIR" INDICATES FEW OR NO CLOUDS BELOW 12,000 FEET WITH NO
SIGNIFICANT WEATHER AND OR OBSTRUCTIONS TO VISIBILITY.


SDZ038>040-050-052>070-180900-
SOUTHEAST SOUTH DAKOTA

CITY           SKY/WX    TMP DP  RH WIND       PRES   REMARKS
CHAMBERLAIN    NOT AVBL
HURON          CLOUDY    15  11  83 SE7       30.22F WCI   5
MADISON        CLOUDY    14  14 100 SE6       30.22F WCI   5
MITCHELL       CLOUDY    17  13  84 SE6       30.23F WCI   9
SIOUX FALLS    CLOUDY    15  12  88 NE5       30.24F WCI   8
WINNER         CLOUDY    23  20  88 SE10      30.11F WCI  12
YANKTON        CLOUDY    19  16  86 CALM      30.24F
$$

MNZ071-072-080-081-089-090-097-098-180900-
SOUTHWEST MINNESOTA

CITY           SKY/WX    TMP DP  RH WIND       PRES   REMARKS
FAIRMONT       CLOUDY    10   7  85 CALM      30.29R
JACKSON        PTCLDY    10   7  85 CALM      30.27S
LUVERNE        CLOUDY    18  12  79 E3        30.26F
MARSHALL       PTCLDY     1  -4  78 CALM      30.28F
MONTEVIDEO     PTCLDY     5   3  92 CALM      30.31S
PIPESTONE      CLOUDY    10   9  92 CALM      30.23F
REDWOOD FALLS  MOCLDY     9   6  88 CALM      30.31S
TRACY          PTCLDY     6   3  88 CALM      30.28S
WINDOM           N/A      5   3  92 CALM      30.27F
WORTHINGTON    MOCLDY     9   7  92 CALM      30.26F
$$

IAZ001>003-012>014-020>022-031-032-NEZ013-014-SDZ071-180900-
NORTHWEST IOWA

CITY           SKY/WX    TMP DP  RH WIND       PRES   REMARKS
DENISON        CLOUDY    25  19  80 E6        30.23F WCI  18
ESTHERVILLE    CLEAR      9   6  88 CALM      30.28S
SIOUX CITY     CLOUDY    26  19  74 SE7       30.25F WCI  18
SPENCER        CLOUDY    15  11  83 NE6       30.28F WCI   6
$$

ABBREVIATIONS USED IN REMARKS
   TC - TEMPERATURE IN CELSIUS
  WCI - WIND CHILL INDEX
   HX - HEAT INDEX
  VSB - VISIBILITY




USA.gov is the U.S. government's official web portal to all federal, state and local government web resources and services.